Temperature
17 17 17 17 17 17 17 17 17 17 17 16 17 16 17 17 17 17 17 17 17 17 17 17 17 17 17 17 17 17 17 17 16 16 16 16 16 16 16 16 16 16 16
17 17 17 17 17 17 17 17 16 16 16 16 16 16 16 17 17 17 17 17 17 17 17 17 17 17 17 17 17 17 16 16 16 16 16 16 16 16 16 16 16 16 16
17 17 16 16 16 16 16 16 16 16 16 16 16 16 16 16 16 16 16 16 17 17 17 17 17 17 17 17 17 17 16 16 16 16 16 16 16 16 16 16 16 16 16
17 16 16 16 16 16 16 16 16 16 16 16 16 16 16 16 16 16 16 16 16 16 16 17 17 17 16 16 16 16 16 16 16 16 16 16 16 16 16 16 16 16 16
16 16 16 16 16 16 16 16 16 16 16 16 16 16 16 16 16 16 16 16 16 16 16 16 16 16 16 16 16 16 16 16 16 16 16 16 16 16 16 16 16 16 16
16 16 16 16 15 15 15 15 15 15 15 15 16 16 16 16 16 16 16 16 16 16 16 16 16 16 16 16 16 16 16 16 16 16 16 16 16 16 16 16 16 16 16
16 16 16 15 15 15 15 15 15 15 15 15 15 16 16 16 16 15 16 16 16 15 16 16 16 16 16 16 16 16 16 16 16 16 16 16 16 16 16 16 16 16 16
16 15 15 15 15 15 14 14 14 15 15 15 15 16 17 17 16 16 15 15 15 15 15 15 15 15 15 16 16 16 16 16 16 16 16 16 16 16 16 16 16 16 16
15 15 15 15 14 14 14 14 14 14 15 14 14 15 17 18 17 16 15 15 15 15 15 15 15 15 15 15 15 16 16 16 16 16 16 16 16 16 16 16 16 16 16
15 15 15 14 14 14 14 14 14 14 14 15 14 14 14 14 15 17 16 15 15 14 15 15 15 15 15 15 15 15 15 16 16 16 16 15 15 15 15 15 16 16 16
15 15 14 14 14 14 14 13 13 13 14 14 14 14 14 14 14 15 16 15 15 15 15 14 15 15 14 14 15 15 15 15 16 16 16 15 15 15 15 15 15 15 16
15 14 14 14 14 14 13 13 13 13 13 13 13 13 14 14 14 14 15 15 15 15 14 14 14 14 14 14 14 15 15 15 15 15 15 15 15 15 15 15 15 15 15
15 14 14 14 14 13 13 13 13 13 13 12 12 13 13 13 13 14 14 14 14 15 14 14 14 14 14 14 14 14 14 15 15 15 15 15 15 15 15 15 15 15 15
15 14 14 14 13 13 13 13 13 12 12 12 12 12 12 13 13 13 13 14 14 15 15 14 14 14 13 13 13 13 13 14 14 15 15 15 15 15 15 15 15 15 15
14 14 14 13 13 13 13 13 13 12 12 12 12 12 12 12 12 12 12 13 13 14 15 14 14 13 13 13 12 12 13 13 14 14 14 15 15 15 15 15 15 15 15
14 14 14 13 13 13 13 13 13 12 12 12 12 12 12 12 12 12 12 12 12 13 13 14 13 13 12 12 12 12 12 13 13 14 14 14 14 14 15 15 15 15 15
14 14 14 13 13 13 13 13 13 12 12 12 12 12 12 11 12 12 12 12 12 12 12 13 13 13 12 11 12 12 12 12 13 13 13 14 14 14 14 14 14 15 15
15 14 14 14 13 13 13 13 13 12 12 12 12 12 12 12 11 11 11 12 12 12 11 12 12 12 12 11 11 11 12 12 12 13 13 13 13 14 14 14 14 14 14
15 14 14 14 14 13 13 13 13 13 13 12 12 12 12 12 11 11 11 11 12 12 11 12 12 12 12 11 11 11 11 11 12 12 12 13 13 13 13 14 14 14 14
15 15 14 14 14 14 14 13 13 13 13 12 12 12 12 12 11 11 11 11 11 11 11 11 12 12 12 12 11 11 12 12 12 12 12 12 12 13 13 13 13 13 14
15 15 15 14 14 14 14 14 13 13 13 13 12 12 12 12 12 12 11 11 11 11 11 12 12 12 12 12 12 11 12 12 12 12 12 12 12 12 13 13 13 13 13
15 15 15 15 14 14 14 14 14 13 13 13 13 12 12 12 12 12 12 12 11 11 11 11 11 12 11 11 11 11 11 11 12 12 12 12 12 12 12 12 13 12 13
16 15 15 15 15 14 15 15 14 14 13 13 13 12 12 13 12 11 12 11 12 11 11 11 10 10 11 11 10 10 10 10 11 11 11 11 12 12 12 12 12 12 12
16 15 15 15 15 14 15 15 14 14 13 13 13 13 12 12 12 11 11 11 11 10 11 11 10 10 10 10 10 10 10 10 10 10 10 10 11 12 12 12 12 12 12
16 15 15 15 15 15 15 15 14 14 13 13 13 12 12 12 12 12 12 11 11 11 11 11 10 10 10 10 10 9 9 10 10 11 11 11 11 11 12 12 12 12 12
16 15 15 15 15 14 14 14 14 13 13 13 13 12 12 12 12 12 12 11 11 11 11 11 10 10 10 10 10 10 9 10 10 11 11 11 11 11 11 12 12 12 12
Wind_Speed
2 2 1 1 1 1 1 1 2 2 3 3 4 5 5 5 5 6 4 5 6 8 11 13 14 15 15 15 15 15 15 15 15 15 14 14 14 13 13 12 12 11 11
3 2 2 1 0 0 0 1 2 2 3 3 4 4 5 5 5 6 7 6 8 9 10 13 14 15 16 16 16 17 17 17 17 17 17 16 15 15 14 14 13 12 12
4 3 2 2 1 1 1 1 2 2 3 3 4 4 4 5 5 6 7 7 7 10 12 12 14 16 17 18 18 18 19 19 19 19 19 18 18 17 17 16 15 14 14
4 3 2 2 2 1 1 1 1 2 2 3 3 3 3 4 5 6 7 7 8 7 10 12 13 15 16 17 18 19 20 20 20 20 20 20 20 19 19 18 17 16 16
4 3 2 3 2 1 0 1 1 2 2 3 4 4 4 4 4 5 5 7 7 7 8 7 11 14 15 17 18 20 21 21 21 21 20 20 21 20 20 20 20 19 18
5 3 3 3 2 1 1 1 1 1 3 3 5 4 5 4 4 4 5 5 6 7 8 8 8 11 15 16 18 20 21 21 21 22 22 22 22 22 22 22 22 21 21
5 3 2 3 1 1 1 1 2 2 2 3 5 5 4 4 3 3 3 4 3 4 6 6 8 7 9 15 18 18 19 20 21 22 24 24 24 24 24 24 24 24 23
5 4 2 2 1 1 1 0 2 4 3 2 5 6 4 4 3 1 2 2 3 4 4 5 5 6 8 8 10 15 17 18 19 21 23 24 24 24 25 25 25 25 25
4 2 3 2 2 2 1 1 2 3 3 2 3 4 5 4 3 2 1 1 2 3 4 4 6 5 7 7 7 10 13 16 18 20 22 24 24 24 26 27 27 27 27
4 4 3 3 3 2 1 3 0 2 3 4 1 2 4 5 5 4 3 2 2 3 4 5 5 5 6 6 5 4 5 10 14 17 20 22 24 25 26 27 28 28 28
4 4 4 3 3 3 2 2 1 3 3 4 4 3 3 3 5 7 6 5 5 4 4 5 5 5 5 5 5 1 1 4 8 11 15 18 21 23 24 26 28 28 28
4 5 4 4 4 3 2 2 2 3 3 3 4 4 4 5 5 5 7 7 6 5 5 5 5 5 5 5 3 3 3 4 4 7 10 13 17 20 23 25 26 27 27
5 5 4 3 3 3 3 3 3 3 3 3 4 5 5 5 5 6 7 8 8 7 5 6 4 5 6 5 3 3 4 3 5 6 8 10 12 16 19 22 23 24 26
4 5 4 4 3 4 4 3 4 4 3 4 4 4 5 5 5 6 7 8 8 8 6 5 4 5 5 6 3 5 7 3 5 7 8 9 11 13 14 17 19 20 23
4 5 5 4 4 4 4 4 4 4 4 5 5 5 6 5 5 6 6 7 8 9 8 5 5 4 5 7 4 8 9 4 6 9 10 10 10 12 13 14 16 18 20
5 6 6 5 5 5 5 5 5 4 5 5 4 5 6 6 5 6 6 7 7 9 10 8 7 7 7 10 7 9 11 10 14 14 12 11 12 12 14 15 15 16 18
6 6 6 6 6 6 6 5 6 5 6 6 6 6 7 7 7 7 6 7 8 8 10 10 9 8 8 10 10 11 12 12 13 14 12 12 13 14 15 16 16 17 17
7 7 7 7 7 7 6 7 7 6 7 7 7 7 8 7 7 8 7 8 8 8 10 12 10 10 10 9 10 10 12 12 13 10 12 13 15 16 17 18 18 18 18
8 8 8 8 8 7 7 7 7 7 8 8 8 8 8 8 9 8 8 9 9 9 9 11 11 9 10 9 10 11 12 10 13 14 13 17 18 18 18 18 19 19 20
9 9 9 9 8 8 8 8 8 8 9 9 9 9 10 10 10 10 9 10 10 10 10 11 11 10 9 9 9 10 10 9 10 11 12 12 14 17 19 20 20 21 21
10 10 9 9 9 9 9 9 8 9 9 10 10 10 11 10 9 9 10 10 10 10 10 11 11 11 10 9 9 9 10 10 10 10 10 11 11 12 14 20 23 23 22
10 10 10 10 11 10 6 7 9 10 10 10 11 11 11 11 13 15 15 15 14 13 13 12 12 12 12 11 10 10 11 11 11 9 9 11 11 12 11 14 14 18 21
11 11 11 11 12 10 9 11 12 11 12 12 12 11 11 11 10 12 14 18 18 20 18 16 16 15 14 12 12 13 12 13 13 11 11 13 12 12 12 14 11 14 16
10 11 11 11 11 11 12 13 12 12 14 14 14 14 14 14 13 12 13 14 14 14 16 16 16 16 16 13 12 13 14 14 15 13 13 14 13 13 12 12 13 18 19
10 10 11 11 12 12 11 13 12 11 12 15 15 15 15 15 13 11 13 15 15 15 15 18 18 17 16 14 12 12 14 14 14 13 11 13 13 13 13 13 13 19 20
9 10 10 10 11 12 10 11 12 10 13 13 13 14 15 17 14 12 14 15 16 15 14 13 14 17 18 18 18 16 15 15 15 14 12 11 13 12 13 12 12 11 14
Wind_Direction
176 165 172 187 229 231 218 231 250 241 246 250 251 251 256 258 265 265 237 183 217 225 223 221 219 220 221 219 218 215 212 209 205 202 200 198 194 191 190 190 187 183 181
156 164 168 142 192 197 7 264 249 241 247 246 251 255 261 263 253 260 264 223 212 221 224 226 222 219 224 225 224 222 218 216 212 206 204 204 202 199 198 198 196 193 191
150 158 143 147 117 115 128 240 270 274 261 250 248 254 255 259 259 254 261 263 240 216 218 227 230 224 223 225 226 226 223 222 219 213 209 208 207 205 203 202 202 200 199
154 167 146 116 115 128 153 186 257 275 283 279 270 267 262 252 255 256 254 249 254 254 223 217 229 229 227 227 229 229 227 224 223 219 215 212 211 210 208 206 205 204 204
154 157 121 105 138 125 124 300 41 308 301 304 282 262 271 265 266 259 262 259 252 255 256 219 220 228 231 231 230 230 230 226 224 223 220 219 216 214 212 211 210 208 208
148 150 133 118 144 117 73 30 345 328 308 307 295 291 273 275 265 264 264 260 258 256 254 253 238 225 224 231 232 230 230 226 225 225 224 223 222 219 215 214 214 212 211
143 152 134 132 159 93 21 318 309 283 298 320 294 283 256 240 251 252 267 280 272 271 269 259 253 250 228 218 222 227 230 229 227 229 228 225 224 224 220 217 216 216 214
166 171 163 186 145 156 173 282 307 310 320 327 314 304 284 223 197 236 259 261 293 283 271 259 262 256 258 241 214 217 225 229 231 230 229 228 227 226 225 222 220 218 217
178 178 184 210 189 228 168 248 280 295 312 310 326 314 308 319 321 212 243 285 303 306 287 282 263 263 261 257 248 218 221 228 231 231 230 229 228 227 228 227 225 222 220
185 186 195 200 224 246 195 241 241 291 294 302 302 299 310 329 305 298 251 238 268 282 302 296 290 273 265 264 255 256 231 236 235 235 234 229 227 227 229 229 228 227 224
186 192 196 203 217 238 237 281 257 280 286 304 312 308 300 279 271 289 298 305 291 285 294 288 289 284 278 264 258 272 278 261 244 239 236 231 228 227 228 231 232 231 228
190 186 196 205 221 235 221 236 251 243 283 304 302 299 296 295 296 294 293 290 297 297 300 296 280 275 271 266 262 38 327 312 286 256 242 237 232 231 232 233 234 235 233
191 180 195 204 220 218 223 233 235 265 259 266 275 287 294 292 296 295 295 298 298 292 284 270 273 279 274 275 267 359 259 286 306 294 263 246 240 235 232 232 234 236 236
194 169 191 202 210 214 221 223 246 240 249 261 270 284 285 283 290 289 293 299 297 294 280 282 291 281 297 290 333 311 269 240 290 293 284 262 247 241 237 235 234 237 237
191 186 197 201 206 212 226 235 249 251 248 253 256 245 263 281 277 284 285 288 293 297 298 294 285 292 293 291 305 291 286 273 284 281 276 269 258 250 244 241 239 238 237
198 197 201 204 208 210 216 234 239 229 244 249 262 278 275 276 280 277 279 279 279 285 290 295 292 294 307 300 282 286 281 273 258 255 259 264 262 255 249 245 243 242 239
195 204 208 212 215 217 219 227 247 241 244 251 253 252 257 275 278 280 274 274 274 277 281 287 289 288 283 282 291 288 281 276 267 229 234 253 260 256 251 248 245 244 242
202 205 211 217 222 223 225 231 243 245 247 252 257 260 262 261 260 269 277 277 278 279 278 284 288 285 280 278 276 278 278 275 276 245 221 245 255 254 250 248 246 244 243
207 210 214 221 226 229 231 236 243 247 250 254 258 260 262 263 262 266 269 273 276 273 272 278 282 284 281 278 281 275 273 270 273 265 233 235 241 245 246 246 245 244 242
211 215 218 224 229 233 235 238 241 247 253 257 258 259 260 260 260 264 264 263 268 275 274 272 277 281 278 276 273 277 277 266 266 273 270 260 242 234 240 241 240 240 240
216 218 223 228 232 235 236 236 243 247 251 257 257 256 257 255 266 264 270 273 272 271 275 276 278 279 279 283 280 284 284 286 275 269 269 265 253 247 238 232 232 233 234
220 222 227 234 238 240 200 209 242 257 256 256 259 261 260 243 238 231 243 255 264 267 271 277 279 280 281 282 282 282 283 283 281 275 272 271 268 263 257 253 233 216 222
219 227 232 236 242 241 205 209 223 248 257 259 260 262 265 265 248 254 238 229 240 243 247 259 271 276 280 279 283 280 276 278 281 286 284 276 271 265 261 257 224 213 222
223 229 236 240 245 243 211 215 218 238 255 258 258 258 260 266 263 258 263 260 255 248 237 238 251 261 267 274 273 272 278 275 270 264 260 267 270 267 264 260 226 213 222
226 232 236 240 245 248 221 215 218 249 254 257 258 259 258 260 252 232 252 261 263 263 251 237 243 254 265 271 268 270 270 269 271 269 255 257 266 268 267 263 248 213 218
230 239 243 245 250 256 239 215 214 252 261 264 263 260 250 244 250 222 243 255 260 263 268 263 240 243 250 250 237 242 255 262 267 270 265 259 263 267 270 263 256 238 225
Height
1570 1571 1571 1572 1573 1573 1574 1574 1575 1575 1575 1576 1577 1577 1578 1579 1579 1580 1581 1580 1581 1581 1582 1583 1584 1585 1586 1587 1589 1590 1591 1592 1594 1595 1596 1598 1599 1600 1601 1603 1604 1605 1606
1569 1570 1571 1571 1572 1572 1573 1573 1573 1573 1574 1575 1575 1575 1575 1576 1576 1577 1578 1578 1578 1579 1580 1581 1582 1583 1584 1585 1586 1588 1589 1591 1592 1593 1595 1596 1598 1599 1600 1602 1603 1604 1606
1568 1569 1570 1570 1571 1571 1571 1572 1572 1573 1573 1573 1573 1573 1573 1574 1574 1574 1575 1575 1576 1576 1577 1578 1579 1580 1581 1582 1583 1585 1586 1588 1590 1591 1593 1594 1596 1598 1599 1600 1602 1603 1605
1567 1568 1569 1570 1570 1570 1571 1571 1571 1572 1572 1572 1572 1572 1572 1571 1571 1572 1572 1572 1573 1574 1574 1575 1576 1577 1577 1578 1579 1581 1583 1585 1587 1588 1590 1592 1594 1595 1597 1599 1600 1602 1603
1567 1568 1569 1568 1569 1570 1570 1571 1571 1571 1571 1570 1571 1570 1570 1570 1569 1570 1570 1570 1570 1570 1571 1572 1572 1573 1574 1575 1576 1577 1579 1581 1583 1585 1586 1589 1591 1592 1594 1596 1598 1599 1601
1566 1568 1568 1568 1569 1570 1570 1570 1569 1569 1569 1569 1569 1569 1568 1567 1567 1567 1567 1567 1567 1568 1568 1569 1569 1569 1570 1570 1572 1573 1575 1576 1578 1580 1582 1584 1587 1589 1591 1593 1595 1597 1598
1566 1567 1568 1567 1568 1569 1568 1569 1569 1569 1569 1568 1568 1567 1566 1566 1565 1565 1565 1565 1565 1565 1565 1565 1565 1566 1566 1566 1567 1568 1570 1572 1573 1575 1577 1579 1582 1585 1587 1589 1591 1593 1595
1565 1567 1567 1568 1567 1567 1567 1567 1567 1568 1568 1567 1567 1566 1565 1565 1564 1564 1563 1563 1563 1563 1562 1562 1562 1562 1562 1564 1564 1564 1566 1567 1568 1570 1572 1574 1577 1580 1582 1584 1587 1589 1591
1564 1565 1565 1566 1566 1567 1567 1566 1566 1566 1567 1566 1566 1566 1565 1562 1563 1563 1562 1561 1561 1561 1561 1560 1560 1559 1559 1560 1561 1561 1561 1563 1564 1565 1567 1569 1571 1574 1576 1579 1581 1584 1586
1563 1564 1564 1564 1565 1566 1565 1565 1565 1565 1565 1565 1565 1564 1565 1564 1563 1561 1561 1560 1560 1559 1558 1558 1558 1557 1557 1557 1557 1557 1557 1558 1559 1560 1562 1563 1566 1568 1571 1573 1575 1578 1581
1561 1562 1562 1563 1563 1564 1564 1563 1563 1563 1564 1564 1564 1564 1563 1563 1562 1562 1560 1560 1559 1558 1557 1556 1555 1555 1555 1554 1554 1554 1554 1555 1555 1556 1557 1558 1560 1563 1565 1567 1569 1571 1574
1560 1560 1561 1561 1562 1562 1562 1561 1561 1562 1561 1561 1561 1562 1562 1562 1561 1560 1559 1558 1557 1556 1555 1554 1553 1553 1552 1552 1552 1550 1550 1551 1552 1552 1553 1554 1556 1557 1559 1561 1563 1565 1568
1559 1558 1560 1559 1560 1560 1560 1560 1560 1560 1560 1559 1559 1560 1560 1560 1559 1559 1558 1556 1555 1553 1552 1551 1551 1550 1550 1549 1548 1547 1547 1547 1548 1548 1549 1550 1551 1552 1553 1555 1556 1558 1561
1558 1557 1557 1557 1558 1558 1559 1558 1559 1559 1558 1557 1558 1557 1557 1558 1557 1556 1556 1555 1553 1551 1550 1549 1549 1548 1547 1546 1545 1543 1544 1543 1543 1544 1545 1546 1547 1547 1548 1549 1551 1552 1554
1555 1555 1555 1555 1556 1556 1556 1556 1557 1556 1556 1556 1556 1556 1555 1556 1555 1554 1553 1553 1552 1549 1548 1547 1546 1545 1544 1543 1541 1540 1540 1539 1538 1539 1540 1541 1541 1542 1543 1544 1545 1546 1548
1552 1552 1553 1554 1554 1554 1554 1554 1555 1554 1554 1553 1553 1552 1552 1553 1552 1552 1551 1550 1549 1548 1546 1544 1543 1543 1540 1539 1538 1536 1535 1534 1534 1534 1534 1535 1536 1537 1537 1538 1539 1540 1541
1549 1550 1551 1551 1552 1552 1552 1552 1553 1552 1552 1552 1551 1550 1550 1549 1549 1549 1548 1547 1546 1545 1543 1541 1540 1538 1536 1534 1533 1532 1531 1530 1530 1529 1528 1529 1530 1530 1531 1532 1533 1534 1535
1547 1547 1548 1549 1549 1550 1550 1550 1550 1550 1550 1549 1549 1548 1547 1547 1545 1545 1544 1544 1542 1541 1539 1537 1535 1534 1532 1530 1528 1526 1527 1527 1526 1524 1522 1522 1523 1524 1524 1525 1526 1527 1528
1544 1545 1545 1546 1547 1547 1547 1547 1547 1547 1546 1546 1545 1545 1544 1543 1542 1542 1540 1539 1538 1537 1535 1533 1531 1530 1528 1527 1525 1523 1522 1520 1520 1519 1517 1516 1516 1516 1517 1518 1519 1520 1521
1541 1542 1542 1543 1544 1544 1544 1544 1544 1543 1543 1542 1541 1541 1540 1539 1538 1537 1536 1534 1534 1532 1531 1529 1527 1526 1524 1522 1521 1519 1518 1516 1515 1514 1513 1512 1510 1509 1509 1510 1511 1512 1514
1538 1538 1539 1540 1540 1540 1540 1541 1540 1540 1539 1538 1537 1536 1535 1534 1533 1532 1532 1531 1530 1528 1527 1525 1523 1522 1520 1519 1517 1515 1514 1512 1510 1509 1508 1506 1506 1504 1503 1503 1503 1504 1505
1534 1535 1535 1536 1536 1537 1537 1536 1535 1535 1534 1534 1533 1532 1531 1529 1527 1526 1525 1524 1524 1522 1522 1520 1519 1517 1515 1514 1512 1511 1509 1507 1505 1505 1503 1501 1500 1499 1498 1498 1497 1496 1497
1529 1530 1531 1531 1532 1532 1531 1531 1531 1530 1529 1528 1527 1526 1526 1525 1523 1521 1519 1517 1516 1515 1514 1514 1512 1511 1510 1509 1507 1505 1504 1502 1500 1499 1498 1495 1494 1492 1492 1491 1490 1490 1490
1524 1525 1526 1526 1526 1527 1526 1526 1525 1524 1523 1522 1521 1520 1519 1518 1517 1516 1514 1513 1511 1509 1508 1506 1504 1503 1503 1502 1500 1499 1497 1495 1493 1491 1491 1489 1487 1486 1485 1484 1483 1482 1482
1519 1520 1521 1521 1521 1521 1521 1520 1520 1518 1517 1516 1515 1514 1512 1511 1510 1509 1507 1505 1504 1503 1502 1499 1498 1496 1495 1494 1493 1492 1491 1490 1487 1486 1485 1483 1481 1480 1479 1477 1476 1475 1474
1514 1515 1515 1515 1515 1515 1515 1514 1513 1512 1511 1510 1508 1507 1505 1504 1503 1502 1500 1498 1497 1496 1495 1494 1491 1488 1487 1486 1485 1484 1483 1483 1481 1479 1478 1477 1475 1474 1472 1471 1470 1469 1467